{"data":{"norad_id":66016,"epoch":"2026-05-25T04:25:41.703744Z","epoch_age_seconds":69410,"freshness":"FRESH","line1":"1 66016U 25232M   26145.18451046  .00013453  00000+0  46543-3 0  9990","line2":"2 66016  53.1567 108.8522 0001126  91.1408 268.9722 15.30205050 35147","mean_motion":15.3020505,"eccentricity":0.0001126,"inclination_deg":53.1567,"raan_deg":108.8522,"arg_perigee_deg":91.1408,"mean_anomaly_deg":268.9722,"bstar":0.00046543,"rev_number":3514,"period_min":94.105035138918,"perigee_km":474.42830532587,"apogee_km":475.97167681626,"semimajor_km":6853.3369910711,"source":"CELESTRAK","updated_at":"2026-05-25T13:38:21.015651Z"}}